Year,Month,Day,Hour,Minute,Value (Times are PST for temperature in C)
2014,09,18,10,16,15.70
2014,09,18,10,17,15.70
2014,09,18,10,18,15.80
2014,09,18,10,19,15.80
2014,09,18,10,20,15.90
2014,09,18,10,21,16.00
2014,09,18,10,22,16.00
2014,09,18,10,23,15.90
2014,09,18,10,24,16.00
2014,09,18,10,25,16.00
2014,09,18,10,26,16.10
2014,09,18,10,27,16.20
2014,09,18,10,28,16.20
2014,09,18,10,29,16.20
2014,09,18,10,30,16.30
2014,09,18,10,31,16.30
2014,09,18,10,32,16.30
2014,09,18,10,33,16.30
2014,09,18,10,34,16.30
2014,09,18,10,35,16.30
2014,09,18,10,36,16.30
2014,09,18,10,37,16.30
2014,09,18,10,38,16.40
2014,09,18,10,39,16.50
2014,09,18,10,40,16.50
2014,09,18,10,41,16.60
2014,09,18,10,42,16.70
2014,09,18,10,43,16.70
2014,09,18,10,44,16.70
2014,09,18,10,45,16.70
2014,09,18,10,46,16.70
2014,09,18,10,47,16.70
2014,09,18,10,48,16.70
2014,09,18,10,49,16.70
2014,09,18,10,50,16.70
2014,09,18,10,51,16.80
2014,09,18,10,52,16.80
2014,09,18,10,53,16.80
2014,09,18,10,54,16.80
2014,09,18,10,55,16.80
2014,09,18,10,56,16.80
2014,09,18,10,57,16.70
2014,09,18,10,58,16.70
2014,09,18,10,59,16.70
2014,09,18,11,00,16.70
2014,09,18,11,01,16.70
2014,09,18,11,02,16.70
2014,09,18,11,03,16.70
2014,09,18,11,04,16.70
2014,09,18,11,05,16.80
2014,09,18,11,06,16.80
2014,09,18,11,07,16.80
2014,09,18,11,08,16.80
2014,09,18,11,09,16.80
2014,09,18,11,10,16.90
2014,09,18,11,11,16.90
2014,09,18,11,12,16.90
2014,09,18,11,13,16.90
2014,09,18,11,14,17.00
2014,09,18,11,15,17.00
2014,09,18,11,16,17.00
2014,09,18,11,17,17.00
2014,09,18,11,18,17.10
2014,09,18,11,19,17.10
2014,09,18,11,20,17.10
2014,09,18,11,21,17.20
2014,09,18,11,22,17.20
2014,09,18,11,23,17.20
2014,09,18,11,24,17.30
2014,09,18,11,25,17.30
2014,09,18,11,26,17.30
2014,09,18,11,27,17.40
2014,09,18,11,28,17.40
2014,09,18,11,29,17.50
2014,09,18,11,30,17.50
2014,09,18,11,31,17.50
2014,09,18,11,32,17.60
2014,09,18,11,33,17.60
2014,09,18,11,34,17.60
2014,09,18,11,35,17.60
2014,09,18,11,36,17.60
2014,09,18,11,37,17.60
2014,09,18,11,38,17.60
2014,09,18,11,39,17.60
2014,09,18,11,40,17.60
2014,09,18,11,41,17.50
2014,09,18,11,42,17.50
2014,09,18,11,43,17.60
2014,09,18,11,44,17.60
2014,09,18,11,45,17.50
2014,09,18,11,46,17.50
2014,09,18,11,47,17.50
2014,09,18,11,48,17.60
2014,09,18,11,49,17.60
2014,09,18,11,50,17.60
2014,09,18,11,51,17.60
2014,09,18,11,52,17.60
2014,09,18,11,53,17.60
2014,09,18,11,54,17.60
2014,09,18,11,55,17.50
2014,09,18,11,56,17.50
2014,09,18,11,57,17.60
2014,09,18,11,58,17.60
2014,09,18,11,59,17.60
2014,09,18,12,00,17.70
2014,09,18,12,01,17.70
2014,09,18,12,02,17.70
2014,09,18,12,03,17.70
2014,09,18,12,04,17.70
2014,09,18,12,05,17.70
2014,09,18,12,06,17.70
2014,09,18,12,07,17.80
2014,09,18,12,08,17.80
2014,09,18,12,09,17.70
2014,09,18,12,10,17.70
2014,09,18,12,11,17.70
2014,09,18,12,12,17.70
2014,09,18,12,13,17.70
2014,09,18,12,14,17.70
2014,09,18,12,15,17.70
2014,09,18,12,16,17.70
2014,09,18,12,17,17.70
2014,09,18,12,18,17.70
2014,09,18,12,19,17.70
2014,09,18,12,20,17.70
2014,09,18,12,21,17.70
2014,09,18,12,22,17.70
2014,09,18,12,23,17.70
2014,09,18,12,39,17.80
2014,09,18,12,40,17.80
2014,09,18,12,41,17.80
2014,09,18,12,42,17.90
2014,09,18,12,43,17.90
2014,09,18,12,44,17.90
2014,09,18,12,45,17.90
2014,09,18,12,46,17.80
2014,09,18,12,47,17.80
2014,09,18,12,48,17.80
2014,09,18,12,49,17.80
2014,09,18,12,50,17.80
2014,09,18,12,51,17.70
2014,09,18,12,52,17.70
2014,09,18,12,53,17.70
2014,09,18,12,54,17.70
2014,09,18,12,55,17.70
2014,09,18,12,56,17.70
2014,09,18,12,57,17.70
2014,09,18,12,58,17.70
2014,09,18,12,59,17.70
2014,09,18,13,00,17.70
2014,09,18,13,01,17.70
2014,09,18,13,02,17.70
2014,09,18,13,03,17.70
2014,09,18,13,04,17.70
2014,09,18,13,05,17.70
2014,09,18,13,06,17.70
2014,09,18,13,07,17.70
2014,09,18,13,08,17.70
2014,09,18,13,09,17.70
2014,09,18,13,10,17.70
2014,09,18,13,11,17.60
2014,09,18,13,12,17.50
2014,09,18,13,13,17.50
2014,09,18,13,14,17.40
2014,09,18,13,15,17.40
2014,09,18,13,16,17.40
2014,09,18,13,17,17.40
2014,09,18,13,18,17.30
2014,09,18,13,19,17.30
2014,09,18,13,20,17.30
2014,09,18,13,21,17.30
2014,09,18,13,22,17.30
2014,09,18,13,23,17.30
2014,09,18,13,24,17.20
2014,09,18,13,25,17.20
2014,09,18,13,26,17.10
2014,09,18,13,27,17.10
2014,09,18,13,28,17.10
2014,09,18,13,29,17.10
2014,09,18,13,30,17.00
2014,09,18,13,31,17.00
2014,09,18,13,32,17.00
2014,09,18,13,33,17.00
2014,09,18,13,34,17.00
2014,09,18,13,35,17.00
2014,09,18,13,36,17.00
2014,09,18,13,37,17.00
2014,09,18,13,38,17.00
2014,09,18,13,39,17.00
2014,09,18,13,40,17.00
2014,09,18,13,41,17.10
2014,09,18,13,42,17.10
2014,09,18,13,43,17.10
2014,09,18,13,44,17.10
2014,09,18,13,45,17.10
2014,09,18,13,46,17.00
2014,09,18,13,47,17.00
2014,09,18,13,48,16.90
2014,09,18,13,49,16.90
2014,09,18,13,50,16.90
2014,09,18,13,51,16.90
2014,09,18,13,52,16.90
2014,09,18,13,53,16.90
2014,09,18,13,54,16.80
2014,09,18,13,55,16.80
2014,09,18,13,56,16.80
2014,09,18,13,57,16.80
2014,09,18,13,58,16.80
2014,09,18,13,59,16.80
2014,09,18,14,00,16.80
2014,09,18,14,01,16.80
2014,09,18,14,02,16.80
2014,09,18,14,03,16.80
2014,09,18,14,04,16.80
2014,09,18,14,05,16.80
2014,09,18,14,06,16.80
2014,09,18,14,07,16.70
2014,09,18,14,08,16.70
2014,09,18,14,09,16.70
2014,09,18,14,10,16.70
2014,09,18,14,11,16.80
2014,09,18,14,12,16.80
2014,09,18,14,13,16.80
2014,09,18,14,14,16.80
2014,09,18,14,15,16.80
2014,09,18,14,16,16.90
2014,09,18,14,17,16.90
2014,09,18,14,18,16.90
2014,09,18,14,19,16.90
2014,09,18,14,20,16.90
2014,09,18,14,21,16.90
2014,09,18,14,22,16.90
2014,09,18,14,23,16.90
2014,09,18,14,24,17.00
2014,09,18,14,25,17.00
2014,09,18,14,26,17.00
2014,09,18,14,27,17.00
2014,09,18,14,28,17.00
2014,09,18,14,29,17.10
2014,09,18,14,30,17.10
2014,09,18,14,31,17.10
2014,09,18,14,32,17.10
2014,09,18,14,33,17.10
2014,09,18,14,34,17.10
2014,09,18,14,35,17.10
2014,09,18,14,36,17.10
2014,09,18,14,37,17.20
2014,09,18,14,38,17.20
2014,09,18,14,39,17.20
2014,09,18,14,40,17.20
2014,09,18,14,41,17.20
2014,09,18,14,42,17.20
2014,09,18,14,43,17.20
2014,09,18,14,44,17.20
2014,09,18,14,45,17.20
2014,09,18,14,46,17.20
2014,09,18,14,47,17.30
2014,09,18,14,48,17.20
2014,09,18,14,49,17.30
2014,09,18,14,50,17.30
2014,09,18,14,51,17.30
2014,09,18,14,52,17.30
2014,09,18,14,53,17.30
2014,09,18,14,54,17.20
2014,09,18,14,55,17.20
2014,09,18,14,56,17.20
2014,09,18,14,57,17.20
2014,09,18,14,58,17.20
2014,09,18,14,59,17.20
2014,09,18,15,00,17.20
2014,09,18,15,01,17.30
2014,09,18,15,02,17.30
2014,09,18,15,03,17.30
2014,09,18,15,04,17.30
2014,09,18,15,05,17.30
2014,09,18,15,06,17.30
2014,09,18,15,07,17.40
2014,09,18,15,08,17.40
2014,09,18,15,09,17.40
2014,09,18,15,10,17.40
2014,09,18,15,11,17.30
2014,09,18,15,12,17.30
2014,09,18,15,13,17.30
2014,09,18,15,14,17.30
2014,09,18,15,15,17.30
2014,09,18,15,16,17.30
2014,09,18,15,17,17.30
2014,09,18,15,18,17.30
2014,09,18,15,19,17.30
2014,09,18,15,20,17.30
2014,09,18,15,21,17.30
2014,09,18,15,22,17.30
2014,09,18,15,23,17.20
2014,09,18,15,24,17.20
2014,09,18,15,25,17.20
2014,09,18,15,26,17.20
2014,09,18,15,27,17.20
2014,09,18,15,28,17.20
2014,09,18,15,29,17.20
2014,09,18,15,30,17.20
2014,09,18,15,31,17.20
2014,09,18,15,32,17.30
2014,09,18,15,33,17.30
2014,09,18,15,34,17.30
2014,09,18,15,35,17.30
2014,09,18,15,36,17.30
2014,09,18,15,37,17.30
2014,09,18,15,38,17.30
2014,09,18,15,39,17.30
2014,09,18,15,40,17.30
2014,09,18,15,41,17.30
2014,09,18,15,42,17.30
2014,09,18,15,43,17.30
2014,09,18,15,44,17.30
2014,09,18,15,45,17.20
2014,09,18,15,46,17.20
2014,09,18,15,47,17.20
2014,09,18,15,48,17.20
2014,09,18,15,49,17.10
2014,09,18,15,50,17.20
2014,09,18,15,51,17.20
2014,09,18,15,52,17.20
2014,09,18,15,53,17.20
2014,09,18,15,54,17.20
2014,09,18,15,55,17.20
2014,09,18,15,56,17.20
2014,09,18,15,57,17.20
2014,09,18,15,58,17.20
2014,09,18,15,59,17.20
2014,09,18,16,00,17.20
2014,09,18,16,01,17.20
2014,09,18,16,02,17.20
2014,09,18,16,03,17.20
2014,09,18,16,04,17.20
2014,09,18,17,29,17.20
2014,09,18,17,30,17.20
2014,09,18,17,31,17.20
2014,09,18,17,32,17.20
2014,09,18,17,33,17.20
2014,09,18,17,34,17.20
2014,09,18,17,35,17.20
2014,09,18,17,36,17.20
2014,09,18,17,37,17.20
2014,09,18,17,38,17.20
2014,09,18,17,39,17.20
2014,09,18,17,40,17.20
2014,09,18,17,41,17.20
2014,09,18,17,42,17.20
2014,09,18,17,43,17.20
2014,09,18,17,44,17.20
2014,09,18,17,45,17.20
2014,09,18,17,46,17.20
2014,09,18,17,47,17.20
2014,09,18,17,48,17.20
2014,09,18,17,49,17.30
2014,09,18,17,50,17.30
2014,09,18,17,51,17.30
2014,09,18,17,52,17.30
2014,09,18,17,53,17.30
2014,09,18,17,54,17.30
2014,09,18,17,55,17.30
2014,09,18,17,56,17.40
2014,09,18,17,57,17.40
2014,09,18,17,58,17.40
2014,09,18,17,59,17.40
2014,09,18,18,00,17.40
2014,09,18,18,01,17.40
2014,09,18,18,02,17.40
2014,09,18,18,03,17.40
2014,09,18,18,04,17.40
2014,09,18,18,05,17.40
2014,09,18,18,06,17.40
2014,09,18,18,07,17.40
2014,09,18,18,08,17.40
